Location: Pittman
(37.9557°N, 80.9209°W)
Time: 15:22:15
(UTC+00:00)

Envisat - Pass Details

Date: 27 April 2026
Orbit: 761 x 762 km, 98.4° (Epoch: 15 May)

Event Time Altitude Azimuth Distance (km) Brightness Sun altitude
Rises 07:04:25 0° 27° (NNE) 3,229 7.3 -32.8°
Reaches altitude 10° 07:07:08 10° 41° (NE) 2,298 6.3 -32.5°
Enters shadow 07:11:12 25° 94° (E) 1,514 4.7 -32.1°
